Location: Saint-Restitut
(44.3351°N, 4.7915°E)
Time: 13:41:47
(UTC+00:00)

MINOTAUR 4 R/B - Pass Details

Date: 03 February 2023
Orbit: 448 x 453 km, 98.0° (Epoch: 19 March)

Event Time Altitude Azimuth Distance (km) Brightness Sun altitude
Exits shadow 17:18:52 - 57° (ENE) 1,918 6.5 -5.2°
Enters shadow 18:36:22 -32° 11° (N) 7,560 10.1 -18.8°
Maximum altitude 18:54:16 52° 287° (WNW) 563 4.6 -22.0°
